Location: Bats
(43.6587°N, 0.4584°W)
Time: 09:27:01
(UTC+00:00)

Cosmos 1339 Rocket - Pass Details

Date: 12 January 2026
Orbit: 941 x 1006 km, 82.9° (Epoch: 17 February)

Event Time Altitude Azimuth Distance (km) Brightness Sun altitude
Rises 19:14:34 0° 184° (S) 3,668 7.6 -26.1°
Reaches altitude 10° 19:17:04 10° 184° (S) 2,715 6.9 -26.5°
Maximum altitude 19:23:18 86° 97° (E) 973 4.3 -27.7°
Enters shadow 19:25:13 47° 12° (NNE) 1,248 4.9 -28.0°
